Regional Weather Roundup
Issued by NWS

Home | Current Version | Previous Version | Graphics & Text | Print | Product List | Glossary On
Versions: 1 2 3 4 5 6 7 8 9 10 11 12 13 14 15 16 17 18 19 20 21 22 23 24 25 26 27 28 29 30 31 32 33 34 35 36 37 38 39 40 41 42 43 44 45 46 47 48 49 50
000
ASUS43 KBIS 240159
RWRND

NORTH DAKOTA REGIONAL WEATHER ROUNDUP
NATIONAL WEATHER SERVICE BISMARCK ND
800 PM CST SUN NOV 23 2014

NOTE: "FAIR" INDICATES FEW OR NO CLOUDS BELOW 12,000 FEET WITH NO
SIGNIFICANT WEATHER AND/OR OBSTRUCTIONS TO VISIBILITY.


NDZ001>003-009>011-017-240300-
NORTHWEST NORTH DAKOTA

CITY           SKY/WX    TMP DP  RH WIND       PRES   REMARKS
WILLISTON      CLEAR     16  10  77 N9        29.81R WCI   4
MINOT          FLURRIES  16   8  71 NW24G33   29.72R WCI  -2
MINOT AFB      MIX PCPN  16  10  79 NW23G29   29.73R WCI  -2
$$

NDZ018>021-031>035-040>046-240300-
SOUTHWEST NORTH DAKOTA

CITY           SKY/WX    TMP DP  RH WIND       PRES   REMARKS
BISMARCK       FLURRIES  21  14  74 N18G28    29.70R WCI   6
GARRISON         N/A     18  12  77 NW29G38   29.69S WCI  -1
HETTINGER ARPT PTCLDY    21  15  78 NW22G32   29.71F WCI   5
$$

NDZ004>008-012>016-024-026-027-054-240300-
NORTHEAST NORTH DAKOTA

CITY           SKY/WX    TMP DP  RH WIND       PRES   REMARKS
GRAND FORKS    FLURRIES  19  15  84 NW20G29   29.59R WCI   3
DEVILS LAKE    CLOUDY    14   3  62 NW24      29.60S WCI  -5
$$

NDZ022-023-025-028>030-036>039-047>053-240300-
SOUTHEAST NORTH DAKOTA

CITY           SKY/WX    TMP DP  RH WIND       PRES   REMARKS
FARGO          MIX PCPN  24  20  84 NW24      29.56R FOG     WCI   8
$$




USA.gov is the U.S. government's official web portal to all federal, state and local government web resources and services.